Time,TemperatureF,DewpointF,PressureIn,WindDirection,WindDirectionDegrees,WindSpeedMPH,WindSpeedGustMPH,Humidity,HourlyPrecipIn,Conditions,Clouds,dailyrainin,SolarRadiationWatts/m^2,SoftwareType,DateUTC
2013-05-16 00:02:00,69.0,54.0,-100.00,South,183,2.0,6.0,59,0.00,,,0.00,0.000000,,2013-05-16 05:02:00,
2013-05-16 00:32:00,68.0,54.0,-100.00,South,175,2.0,6.0,61,0.00,,,0.00,0.000000,,2013-05-16 05:32:00,
2013-05-16 00:42:00,68.0,54.0,-100.00,South,175,2.0,6.0,61,0.00,,,0.00,0.000000,,2013-05-16 05:42:00,
2013-05-16 00:52:00,68.0,54.0,-100.00,South,175,2.0,6.0,61,0.00,,,0.00,0.000000,,2013-05-16 05:52:00,
2013-05-16 01:01:00,68.0,54.0,-100.00,South,175,2.0,6.0,61,0.00,,,0.00,0.000000,,2013-05-16 06:01:00,
2013-05-16 01:33:00,68.0,55.0,-100.00,South,176,2.0,6.0,63,0.00,,,0.00,0.000000,,2013-05-16 06:33:00,
2013-05-16 01:43:00,68.0,55.0,-100.00,South,176,2.0,6.0,63,0.00,,,0.00,0.000000,,2013-05-16 06:43:00,
2013-05-16 01:53:00,68.0,55.0,-100.00,South,176,2.0,6.0,63,0.00,,,0.00,0.000000,,2013-05-16 06:53:00,
2013-05-16 02:02:00,68.0,55.0,-100.00,South,176,2.0,6.0,63,0.00,,,0.00,0.000000,,2013-05-16 07:02:00,
2013-05-16 02:34:00,67.0,56.0,-100.00,WSW,257,2.0,4.0,68,0.00,,,0.00,0.000000,,2013-05-16 07:34:00,
2013-05-16 02:44:00,67.0,56.0,-100.00,WSW,257,2.0,4.0,68,0.00,,,0.00,0.000000,,2013-05-16 07:44:00,
2013-05-16 02:54:00,67.0,56.0,-100.00,WSW,257,2.0,4.0,68,0.00,,,0.00,0.000000,,2013-05-16 07:54:00,
2013-05-16 03:03:00,67.0,56.0,-100.00,WSW,257,2.0,4.0,68,0.00,,,0.00,0.000000,,2013-05-16 08:03:00,
2013-05-16 03:35:00,66.0,56.0,-100.00,South,189,0.0,3.0,70,0.00,,,0.00,0.000000,,2013-05-16 08:35:00,
2013-05-16 03:45:00,66.0,56.0,-100.00,South,189,0.0,3.0,70,0.00,,,0.00,0.000000,,2013-05-16 08:45:00,
2013-05-16 03:55:00,66.0,56.0,-100.00,South,189,0.0,3.0,70,0.00,,,0.00,0.000000,,2013-05-16 08:55:00,
2013-05-16 04:04:00,66.0,56.0,-100.00,South,189,0.0,3.0,70,0.00,,,0.00,0.000000,,2013-05-16 09:04:00,
2013-05-16 04:35:00,66.0,58.0,-100.00,SW,228,1.0,3.0,75,0.00,,,0.00,0.000000,,2013-05-16 09:35:00,
2013-05-16 04:45:00,66.0,58.0,-100.00,SW,228,1.0,3.0,75,0.00,,,0.00,0.000000,,2013-05-16 09:45:00,
2013-05-16 04:55:00,66.0,58.0,-100.00,SW,228,1.0,3.0,75,0.00,,,0.00,0.000000,,2013-05-16 09:55:00,
2013-05-16 05:05:00,66.0,58.0,-100.00,SW,228,1.0,3.0,75,0.00,,,0.00,0.000000,,2013-05-16 10:05:00,
2013-05-16 05:36:00,66.0,58.0,-100.00,WSW,251,2.0,4.0,76,0.00,,,0.00,0.000000,,2013-05-16 10:36:00,
2013-05-16 05:45:00,66.0,58.0,-100.00,WSW,251,2.0,4.0,76,0.00,,,0.00,0.000000,,2013-05-16 10:45:00,
2013-05-16 05:56:00,66.0,58.0,-100.00,WSW,251,2.0,4.0,76,0.00,,,0.00,0.000000,,2013-05-16 10:56:00,
2013-05-16 06:05:00,66.0,58.0,-100.00,WSW,251,2.0,4.0,76,0.00,,,0.00,0.000000,,2013-05-16 11:05:00,
2013-05-16 06:35:00,66.0,59.0,-100.00,WSW,255,3.0,5.0,77,0.00,,,-99.99,1.000000,,2013-05-16 11:35:00,
2013-05-16 06:46:00,66.0,59.0,-100.00,WSW,255,3.0,5.0,77,0.00,,,-99.99,1.000000,,2013-05-16 11:46:00,
2013-05-16 06:57:00,66.0,59.0,-100.00,WSW,255,3.0,5.0,77,0.00,,,-99.99,1.000000,,2013-05-16 11:57:00,
2013-05-16 07:06:00,66.0,59.0,-100.00,WSW,255,3.0,5.0,77,0.00,,,-99.99,1.000000,,2013-05-16 12:06:00,
2013-05-16 07:35:00,68.0,60.0,-100.00,West,265,5.0,8.0,75,0.00,,,0.00,29.000000,,2013-05-16 12:35:00,
2013-05-16 07:45:00,68.0,60.0,-100.00,West,265,5.0,8.0,75,0.00,,,0.00,29.000000,,2013-05-16 12:45:00,
2013-05-16 07:53:00,68.0,60.0,-100.00,West,265,5.0,8.0,75,0.00,,,0.00,29.000000,,2013-05-16 12:53:00,
2013-05-16 08:04:00,68.0,60.0,-100.00,West,265,5.0,8.0,75,0.00,,,0.00,29.000000,,2013-05-16 13:04:00,
2013-05-16 08:35:00,69.0,62.0,-100.00,SW,232,2.0,6.0,79,0.00,,,-99.99,137.000000,,2013-05-16 13:35:00,
2013-05-16 08:44:00,69.0,62.0,-100.00,SW,232,2.0,6.0,79,0.00,,,-99.99,137.000000,,2013-05-16 13:44:00,
2013-05-16 08:55:00,69.0,62.0,-100.00,SW,232,2.0,6.0,79,0.00,,,-99.99,137.000000,,2013-05-16 13:55:00,
2013-05-16 09:05:00,69.0,62.0,-100.00,SW,232,2.0,6.0,79,0.00,,,-99.99,137.000000,,2013-05-16 14:05:00,
2013-05-16 09:08:00,71.0,62.0,-100.00,WSW,256,6.0,11.0,72,0.00,,,0.00,255.000000,,2013-05-16 14:08:00,
2013-05-16 09:37:00,71.0,62.0,-100.00,WSW,256,6.0,11.0,72,0.00,,,0.00,255.000000,,2013-05-16 14:37:00,
2013-05-16 09:47:00,71.0,62.0,-100.00,WSW,256,6.0,11.0,72,0.00,,,0.00,255.000000,,2013-05-16 14:47:00,
2013-05-16 09:56:00,71.0,62.0,-100.00,WSW,256,6.0,11.0,72,0.00,,,0.00,255.000000,,2013-05-16 14:56:00,
2013-05-16 10:08:00,75.0,59.0,-100.00,WSW,258,11.0,18.0,58,0.00,,,0.00,664.000000,,2013-05-16 15:08:00,
2013-05-16 10:40:00,75.0,59.0,-100.00,WSW,258,11.0,18.0,58,0.00,,,0.00,664.000000,,2013-05-16 15:40:00,
2013-05-16 10:50:00,75.0,59.0,-100.00,WSW,258,11.0,18.0,58,0.00,,,0.00,664.000000,,2013-05-16 15:50:00,
2013-05-16 11:00:00,75.0,59.0,-100.00,WSW,258,11.0,18.0,58,0.00,,,0.00,664.000000,,2013-05-16 16:00:00,
2013-05-16 11:08:00,77.0,57.0,-100.00,WSW,245,9.0,19.0,51,0.00,,,0.00,845.000000,,2013-05-16 16:08:00,
2013-05-16 11:40:00,77.0,-99.9,-100.00,WSW,245,9.0,19.0,51,0.00,,,0.00,845.000000,,2013-05-16 16:40:00,
2013-05-16 11:51:00,77.0,57.0,-100.00,WSW,245,9.0,19.0,51,0.00,,,0.00,845.000000,,2013-05-16 16:51:00,
2013-05-16 12:01:00,77.0,57.0,-100.00,WSW,245,9.0,19.0,51,0.00,,,0.00,845.000000,,2013-05-16 17:01:00,
2013-05-16 12:08:00,79.0,59.0,-100.00,SW,231,5.0,16.0,51,0.00,,,-99.99,922.000000,,2013-05-16 17:08:00,
2013-05-16 12:40:00,79.0,59.0,-100.00,SW,231,5.0,16.0,51,0.00,,,-99.99,922.000000,,2013-05-16 17:40:00,
2013-05-16 12:50:00,-999.0,-99.9,-100.00,SW,231,5.0,16.0,51,0.00,,,-99.99,922.000000,,2013-05-16 17:50:00,
2013-05-16 13:00:00,-999.0,-99.9,-100.00,SW,231,5.0,16.0,51,0.00,,,-99.99,922.000000,,2013-05-16 18:00:00,
2013-05-16 13:08:00,81.0,59.0,-100.00,SW,229,4.0,12.0,48,0.00,,,-99.99,878.000000,,2013-05-16 18:08:00,
2013-05-16 13:41:00,-999.0,-99.9,-100.00,SW,229,4.0,12.0,48,0.00,,,-99.99,878.000000,,2013-05-16 18:41:00,
2013-05-16 13:50:00,-999.0,-99.9,-100.00,SW,229,4.0,12.0,48,0.00,,,-99.99,878.000000,,2013-05-16 18:50:00,
2013-05-16 14:00:00,-999.0,-99.9,-100.00,SW,229,4.0,12.0,48,0.00,,,-99.99,878.000000,,2013-05-16 19:00:00,
2013-05-16 14:08:00,-999.0,-99.9,-100.00,WSW,250,6.0,12.0,48,0.00,,,0.00,916.000000,,2013-05-16 19:08:00,
2013-05-16 14:40:00,81.0,-99.9,-100.00,WSW,250,6.0,12.0,48,0.00,,,0.00,916.000000,,2013-05-16 19:40:00,
2013-05-16 14:51:00,-999.0,-99.9,-100.00,WSW,250,6.0,12.0,48,0.00,,,0.00,916.000000,,2013-05-16 19:51:00,
2013-05-16 15:01:00,-999.0,-99.9,-100.00,WSW,250,6.0,12.0,48,0.00,,,0.00,916.000000,,2013-05-16 20:01:00,
2013-05-16 15:08:00,81.0,-99.9,-100.00,South,181,3.0,11.0,45,0.00,,,0.00,811.000000,,2013-05-16 20:08:00,
2013-05-16 15:41:00,-999.0,-99.9,-100.00,South,181,3.0,11.0,45,0.00,,,0.00,811.000000,,2013-05-16 20:41:00,
2013-05-16 15:51:00,81.0,58.0,-100.00,South,181,3.0,11.0,45,0.00,,,0.00,811.000000,,2013-05-16 20:51:00,
2013-05-16 16:00:00,81.0,-99.9,-100.00,South,181,3.0,11.0,45,0.00,,,0.00,811.000000,,2013-05-16 21:00:00,
2013-05-16 16:08:00,81.0,59.0,-100.00,SSW,196,3.0,10.0,48,0.00,,,0.00,815.000000,,2013-05-16 21:08:00,
2013-05-16 17:00:00,-999.0,-99.9,-100.00,SSW,196,3.0,10.0,48,0.00,,,0.00,815.000000,,2013-05-16 22:00:00,
2013-05-16 17:40:00,80.0,60.0,-100.00,SSE,153,3.0,8.0,50,0.00,,,0.00,449.000000,,2013-05-16 22:40:00,
2013-05-16 17:51:00,80.0,60.0,-100.00,SSE,153,3.0,8.0,50,0.00,,,0.00,449.000000,,2013-05-16 22:51:00,
2013-05-16 18:01:00,80.0,60.0,-100.00,SSE,153,3.0,8.0,50,0.00,,,0.00,449.000000,,2013-05-16 23:01:00,
2013-05-16 18:06:00,80.0,60.0,-100.00,SSE,153,3.0,8.0,50,0.00,,,0.00,449.000000,,2013-05-16 23:06:00,
2013-05-16 18:35:00,79.0,61.0,-100.00,SSE,162,1.0,8.0,55,0.00,,,0.00,264.000000,,2013-05-16 23:35:00,
2013-05-16 18:45:00,79.0,61.0,-100.00,SSE,162,1.0,8.0,55,0.00,,,0.00,264.000000,,2013-05-16 23:45:00,
2013-05-16 18:54:00,79.0,61.0,-100.00,SSE,162,1.0,8.0,55,0.00,,,0.00,264.000000,,2013-05-16 23:54:00,
2013-05-16 19:02:00,79.0,61.0,-100.00,SSE,162,1.0,8.0,55,0.00,,,0.00,264.000000,,2013-05-17 00:02:00,
2013-05-16 19:33:00,77.0,62.0,-100.00,SE,137,1.0,5.0,60,0.00,,,-99.99,158.000000,,2013-05-17 00:33:00,
2013-05-16 19:44:00,77.0,62.0,-100.00,SE,137,1.0,5.0,60,0.00,,,-99.99,158.000000,,2013-05-17 00:44:00,
2013-05-16 19:53:00,77.0,62.0,-100.00,SE,137,1.0,5.0,60,0.00,,,-99.99,158.000000,,2013-05-17 00:53:00,
2013-05-16 20:03:00,77.0,62.0,-100.00,SE,137,1.0,5.0,60,0.00,,,-99.99,158.000000,,2013-05-17 01:03:00,
2013-05-16 20:32:00,73.0,61.0,-100.00,SE,142,0.0,3.0,67,0.00,,,0.00,16.000000,,2013-05-17 01:32:00,
2013-05-16 20:44:00,73.0,61.0,-100.00,SE,142,0.0,3.0,67,0.00,,,0.00,16.000000,,2013-05-17 01:44:00,
2013-05-16 20:52:00,73.0,61.0,-100.00,SE,142,0.0,3.0,67,0.00,,,0.00,16.000000,,2013-05-17 01:52:00,
2013-05-16 21:02:00,73.0,61.0,-100.00,SE,142,0.0,3.0,67,0.00,,,0.00,16.000000,,2013-05-17 02:02:00,
2013-05-16 21:33:00,71.0,63.0,-100.00,ESE,117,0.0,3.0,77,0.00,,,0.00,0.000000,,2013-05-17 02:33:00,
2013-05-16 21:42:00,71.0,63.0,-100.00,ESE,117,0.0,3.0,77,0.00,,,0.00,0.000000,,2013-05-17 02:42:00,
2013-05-16 21:53:00,71.0,63.0,-100.00,ESE,117,0.0,3.0,77,0.00,,,0.00,0.000000,,2013-05-17 02:53:00,
2013-05-16 22:02:00,71.0,63.0,-100.00,ESE,117,0.0,3.0,77,0.00,,,0.00,0.000000,,2013-05-17 03:02:00,
2013-05-16 22:34:00,68.0,62.0,-100.00,SSE,147,0.0,0.0,82,0.00,,,0.00,0.000000,,2013-05-17 03:34:00,
2013-05-16 22:43:00,68.0,62.0,-100.00,SSE,147,0.0,0.0,82,0.00,,,0.00,0.000000,,2013-05-17 03:43:00,
2013-05-16 22:53:00,68.0,62.0,-100.00,SSE,147,0.0,0.0,82,0.00,,,0.00,0.000000,,2013-05-17 03:53:00,
2013-05-16 23:02:00,68.0,62.0,-100.00,SSE,147,0.0,0.0,82,0.00,,,0.00,0.000000,,2013-05-17 04:02:00,
2013-05-16 23:34:00,67.0,62.0,-100.00,SE,132,0.0,3.0,83,0.00,,,0.00,0.000000,,2013-05-17 04:34:00,
2013-05-16 23:43:00,67.0,62.0,-100.00,SE,132,0.0,3.0,83,0.00,,,0.00,0.000000,,2013-05-17 04:43:00,
2013-05-16 23:53:00,67.0,62.0,-100.00,SE,132,0.0,3.0,83,0.00,,,0.00,0.000000,,2013-05-17 04:53:00,